SL-3 DEB

Satellite information

Favourite Embed

Satellite Type and Status

DEBRISIN ORBIT

Key statistics

Satellite SL-3 DEB at a glance.

Uptime

16238

Days in orbit

Revolutions

≈ 14.1

Per day

Orbit

LEO

Low Earth Orbit

Inclination

81.3

Latest

Satellite identification and parameters

Extended collection of information and parameters for SL-3 DEB.

Object identification

Identified? True

Debris? True

Object name: SL-3 DEB

International designator: 1981-043D

Object number (NORAD): 25255

Object ID (CCSDS): 25255

Country: COMMONWEALTH OF INDEPENDENT STATES (CIS)

Current information (Y/N): Y

RCS size: SMALL

Orbital parameters

Period: 102.229 minutes

Inclination: 81.2985 deg

SMA: 7242.284 km

Apoapsis: 898.029 km

Periapsis: 830.27 km

RAAN: 44.4557 deg

Eccentricy: 0.00467805

Argument of periapsis: 163.673 deg

Mean anomaly: 348.4075 deg

Mean motion: 14.08605549 rev/day

Mean motion (dot): 0.0000014 rev/day2

B* drag term: 0.000073457409 1/REarth

Two-line elements (TLE)

Creation date: Oct. 28, 2025, 2:18 a.m.

Reference frame: TEME

Reference center: EARTH

Epoch: Oct. 27, 2025, 5:50 p.m. UTC

TLE line 0: 0 SL-3 DEB

TLE line 1: 1 25255U 81043D 25300.74356558 .00000140 00000-0 73457-4 0 9993

TLE line 2: 2 25255 81.2985 44.4557 0046781 163.6730 348.4075 14.08605549489267

Live tracking on map

Real-time ground track for satellite SL-3 DEB.

In-orbit conjunctions

A list of the most updated potential collisions computed for object SL-3 DEB.

Target Orbit TCA Probability of collision Miss distance Type
SL-16 DEB LEO 2025-04-28 09:15:59 0.0001106757 683.0 (m) DEBRIS
NOAA 16 DEB SSO 2024-11-09 09:33:59 0.0003493078 255.0 (m) DEBRIS

Associated space launch

Second generation soviet meteorological satellite

SL-3 DEB was lifted into orbit during the mission ‘Vostok 8A92M | Meteor-2 7’, on board a Vostok 8A92M space rocket.

The launch took place on May 14, 1981, 9:45 p.m. from 43/3 (43L).

For more information about the launch, click the button.

Launch to space Vostok 8A92M | Meteor-2 7
Vostok 8A92M | Meteor-2 7

Agency: N/A

Status: Launch Successful

Launch date: May 14, 1981, 9:45 p.m. UTC

Rocket: Vostok 8A92M

Launch pad: 43/3 (43L)

Location: Plesetsk Cosmodrome, Russian Federation

...

Latest news about this satellite

There are no fresh news available about this satellite. Check back as we update our databases every day.


Newsletter sign-up

Weekly statistics, charts and insights to help you stay on top of the space industry.